Regional Weather Roundup
Issued by NWS Upton, NY

Current Version | Previous Version | Graphics & Text | Print | Product List | Glossary Off
Versions: 1 2 3 4 5 6 7 8 9 10 11 12 13 14 15 16 17 18 19 20 21 22 23 24 25 26 27 28 29 30 31 32 33 34 35 36 37 38 39 40 41 42 43 44 45 46 47 48 49

000
ASUS41 KOKX 181908
RWROKX

REGIONAL WEATHER ROUNDUP
NATIONAL WEATHER SERVICE NEW YORK NY
300 PM EDT WED OCT 18 2017

NOTE: "FAIR" INDICATES FEW OR NO CLOUDS BELOW 12,000 FEET WITH NO
SIGNIFICANT WEATHER AND/OR OBSTRUCTIONS TO VISIBILITY.

NYZ071-072-176-178-NJZ106-104-182000-
NEW YORK CITY METRO AREA

CITY           SKY/WX    TMP DP  RH WIND       PRES   REMARKS
Central Park   SUNNY     71  45  39 VRB3      30.29F
Bronx Bot Gard   N/A     72  43  35 NW6       30.28S
LaGuardia APRT SUNNY     73  44  35 CALM      30.26F
Kennedy INTL   NOT AVBL
Breezy Point     N/A     66 N/A N/A SW7         N/A
Newark/Liberty NOT AVBL
Teterboro      SUNNY     75  45  34 VRB5      30.25F
$$

NYZ177-179-078>081-182000-
LONG ISLAND NEW YORK

CITY           SKY/WX    TMP DP  RH WIND       PRES   REMARKS
Jones Beach      N/A     63 N/A N/A W8          N/A
Matinecock PT    N/A     68 N/A N/A SW7         N/A
Farmingdale    SUNNY     71  50  47 S9        30.27F
MacArthur/ISP  MOSUNNY   70  50  49 S9        30.26F
Shirley        SUNNY     71  50  47 S7        30.27F
Mt Sinai Harb    N/A    N/A N/A N/A NW2         N/A
Westhampton    SUNNY     67  48  50 S6        30.28F
East Hampton   FAIR      67  52  57 SW7       30.26F
Montauk          N/A     69  48  47 VRB5      30.27F
$$

NYZ052-065-067-182000-
HUDSON VALLEY

CITY           SKY/WX    TMP DP  RH WIND       PRES   REMARKS
White Plains   SUNNY     72  45  37 NW7       30.26F
Larchmont Harb   N/A     66 N/A N/A SE9         N/A
Croton On Huds   N/A     72 N/A N/A SW1         N/A
Newburgh       SUNNY     70  50  49 SW7       30.27F
Montgomery     SUNNY     71  47  42 CALM      30.24F
Poughkeepsie   SUNNY     70  46  42 W7        30.24F
Albany         MOSUNNY   69  47  45 E5        30.23F
$$

NJZ001-105-106-008-010-013-015-019>022-104-182000-
NEW JERSEY

CITY           SKY/WX    TMP DP  RH WIND       PRES   REMARKS
Newark/Liberty NOT AVBL
Teterboro      SUNNY     75  45  34 VRB5      30.25F
Caldwell       SUNNY     73  47  39 W7        30.26F
Somerville     SUNNY     73  47  39 VRB6      30.26F
Linden         FAIR      72  44  36 S3        30.27F
Perth Amboy      N/A     68 N/A N/A SW3         N/A
Sussex         SUNNY     71  47  42 SW6       30.26F
Andover          N/A     70  47  43 S5        30.27F
Trenton        SUNNY     71  47  42 S6        30.28F
Millville      SUNNY     71  47  42 W7        30.31F
Atlantic City  SUNNY     70  46  42 W3        30.30F
Wrightstown    SUNNY     72  45  37 W6        30.28F
Toms River       N/A     72  47  40 VRB6      30.30F
Belmar         SUNNY     71  47  42 W7        30.30F
$$

PAZ047>061-062-071-182000-
EASTERN PENNSYLVANIA

CITY           SKY/WX    TMP DP  RH WIND       PRES   REMARKS
Philadelphia   SUNNY     70  44  39 SW8       30.30F
Allentown      SUNNY     72  47  40 SW8       30.28F
Scranton       SUNNY     69  44  40 W6        30.28F
$$

CTZ002-004>006-009-010-012-RIZ004-006-007-MAZ004-011-015-182000-
SOUTHERN NEW ENGLAND
 IN CT

CITY           SKY/WX    TMP DP  RH WIND       PRES   REMARKS
Bradley INTL   MOSUNNY   73  43  33 W10       30.24S
Hartford       SUNNY     74  43  32 W7        30.23F
Danbury        SUNNY     71  46  40 SW7       30.27F
Wtrbury/Oxford SUNNY     69  44  40 W6        30.27F
Norwalk Harbor   N/A     64 N/A N/A S9          N/A
Bridgeport     SUNNY     69  50  50 SW12      30.26F
Meriden        SUNNY     73  43  33 VRB3      30.24F
New Haven      SUNNY     67  51  56 S8        30.27S
Chester        FAIR      72  48  43 VRB7      30.26S
Groton         SUNNY     66  53  63 SW12      30.25S
Wilimantic     SUNNY     72  42  34 VRB7      30.25S

 IN RI

CITY           SKY/WX    TMP DP  RH WIND       PRES   REMARKS
Providence     MOSUNNY   73  42  32 W7        30.23F
Block Island   SUNNY     66  53  63 SW15      30.26S
Westerly       SUNNY     68  49  50 SW9       30.25F
 IN MA

CITY           SKY/WX    TMP DP  RH WIND       PRES   REMARKS
Boston         MOSUNNY   71  39  31 W10       30.21F
Worcester      SUNNY     66  38  35 W9G18     30.24S
Westfield      SUNNY     74  41  30 W12       30.22F
Provincetown   SUNNY     65  48  54 W6        30.23S
Nantucket      SUNNY     65  56  72 W15       30.24R
$$

ANZ330-335-338-340-345-350-353-355-182000-
COASTAL MARINE OBSERVATIONS


STATION/POSITION TIME  SKY/WX   TEMP    WIND        PRES    VSBY  WAVE
                                AIR SEA DIR/SP/G                  HT/PER
                 (UTC)          (F)     (DEG/KT/KT) (MB)    (MI)  (FT/S)
NY HARB ENTRANCE 1850            63 65  210/  6/  8 1024.9          2/10
20 S FIRE ISLAND 1850            62 64  240/ 10/ 12 1025.8          3/ 9
GREAT SOUTH BAY  1830            62 62  230/  8/  8   N/A
15 E BARNEGAT LI 1830               67                N/A           2/ 9
HUDSON CANYON    1850            63 66  250/ 12/ 16 1025.6          3/10
KINGS POINT      1836            69 67  280/  5/  5 1025.6
EXECUTION ROCKS  1830            69     180/  6/  8   N/A
WESTERN LI SOUND 1749            67     210/  8/ 10   N/A           0
CENTRAL LI SOUND NOT AVBL
EASTERN LI SOUND NOT AVBL
ROBBINS REEF     1848            66     140/  8/  9 1025.5
$$


>>>>>>>>>>>>>>>>>>>>>>>>>>>> KEY <<<<<<<<<<<<<<<<<<<<<<<<<<<
>                                                          <
>     SKY/WX - Sky Condition/Present Weather               <
>     TMP    - Temperature in Fahrenheit                   <
>     DP     - Dew Point in Fahrenheit                     <
>     RH     - Relative Humidity in Percent                <
>     WIND   - Direction (from) and Speed in MPH           <
>     PRES   - Mean Sea Level Pressure (inches of Hg)      <
>     WCI    - Wind Chill Index                            <
>     VSB    - VISIBILITY IN MILES                         <
>     HX     - HEAT INDEX                                  <
>     TC     - TEMPERATURE IN CELSIUS                      <
>     VRB    - VARIABLE WIND DIRECTION                     <
>                                                          <
>>>>>>>>>>>>>>>>>>>>>>>>>>>> KEY <<<<<<<<<<<<<<<<<<<<<<<<<<<



USA.gov is the U.S. government's official web portal to all federal, state and local government web resources and services.